Location: Düngen
(52.0952°N, 10.0219°E)
Time: 15:32:48
(UTC+00:00)

MOS 1-B - Pass Details

Date: 11 March 2026
Orbit: 904 x 911 km, 99.2° (Epoch: 14 April)

Event Time Altitude Azimuth Distance (km) Brightness Sun altitude
Exits shadow 19:30:27 39° 125° (SE) 1,327 4.7 -20.8°
Maximum altitude 19:32:24 59° 67° (ENE) 1,044 4.4 -21.1°
Drops below altitude 10° 19:38:04 10° 349° (N) 2,598 7.2 -21.9°
Sets 19:40:31 0° 346° (NNW) 3,543 8.0 -22.3°
